Location: Karcze
(52.0945°N, 22.4786°E)
Time: 22:45:57
(UTC+00:00)

Transit 4A - Pass Details

Date: 03 August 2021
Orbit: 871 x 974 km, 66.8° (Epoch: 18 September)

Event Time Altitude Azimuth Distance (km) Brightness Sun altitude
Exits shadow 23:04:32 20° 242° (WSW) 1,913 9.2 -20.4°
Maximum altitude 23:08:32 58° 315° (NW) 1,013 8.2 -20.3°
Drops below altitude 10° 23:14:18 10° 35° (NE) 2,530 11.1 -20.2°
Sets 23:16:50 0° 40° (NE) 3,474 11.9 -20.1°
